Salem, OR

8:26 PM PDT on July 23, 2017 (GMT -0700)
McNary

Weather History for KSLE - October, 2014

Change the Weather History Date:

Saturday, October 11, 2014

  Actual Average Record
Temperature  
Mean Temperature 66 °F 55 °F  
Max Temperature 73 °F 66 °F 86 °F (1991)
Min Temperature 59 °F 43 °F 30 °F (1894)
Degree Days  
Heating Degree Days 0 10  
Month to date heating degree days 23 95  
Since 1 July heating degree days 55 260  
Cooling Degree Days 1 0  
Month to date cooling degree days 15 0  
Year to date cooling degree days 606 289  
Growing Degree Days 14 (Base 50)    
Moisture  
Dew Point 53 °F    
Average Humidity 66    
Maximum Humidity 90    
Minimum Humidity 41    
Precipitation  
Precipitation 0.06 in 0.07 in 1.64 in (1968)
Month to date precipitation 0.06 0.71  
Year to date precipitation 24.08 23.99  
Sea Level Pressure  
Sea Level Pressure 30.13 in    
Wind  
Wind Speed 9 mph (SSW)    
Max Wind Speed 20 mph    
Max Gust Speed 26 mph    
Visibility 9 miles    
Events Rain    
T = Trace of Precipitation, MM = Missing Value Source: NWS Daily Summary

Daily Weather History Graph

Daily Weather History Graph

Search for Another Location

Airport or City:

Trip Planner

Search our weather history database for the weather conditions in past years. The results will help you decide how hot, cold, wet, or windy it might be!

Date:

Astronomy

Oct. 11, 2014 Rise Set
Actual Time 7:22 AM PDT 6:33 PM PDT
Civil Twilight 6:53 AM PDT 7:03 PM PDT
Nautical Twilight 6:19 AM PDT 7:37 PM PDT
Astronomical Twilight 5:45 AM PDT 8:11 PM PDT
Moon 8:58 PM PDT (10/11) 10:59 AM PDT (10/11)
Length of Visible Light 12h 10m
Length of Day
11h 11m
Waning Gibbous, 86% of the Moon is Illuminated
Oct 11
Waning Gibbous
Oct 15
Last Quarter
Oct 23
New
Oct 30
First Quarter
Nov 6
Full

Hourly Weather History & Observations

Time (PDT) Temp. Dew Point Humidity Pressure Visibility Wind Dir Wind Speed Gust Speed Precip Events Conditions
12:56 AM 61.0 °F 54.0 °F 78% 30.09 in 10.0 mi SSE 3.5 mph - N/A   Overcast
1:56 AM 61.0 °F 53.1 °F 75% 30.08 in 10.0 mi SE 8.1 mph - 0.00 in   Overcast
2:56 AM 62.1 °F 54.0 °F 75% 30.06 in 10.0 mi South 9.2 mph - N/A   Overcast
3:56 AM 61.0 °F 54.0 °F 78% 30.05 in 10.0 mi South 11.5 mph - N/A   Overcast
4:56 AM 61.0 °F 55.0 °F 81% 30.06 in 6.0 mi South 6.9 mph - 0.00 in Rain Rain
5:28 AM 60.1 °F 55.0 °F 83% 30.07 in 10.0 mi South 6.9 mph - 0.01 in   Overcast
5:56 AM 60.1 °F 55.0 °F 83% 30.06 in 10.0 mi South 6.9 mph - 0.02 in   Overcast
6:05 AM 60.1 °F 55.0 °F 83% 30.07 in 10.0 mi South 8.1 mph - N/A   Overcast
6:17 AM 60.1 °F 55.0 °F 83% 30.07 in 10.0 mi South 8.1 mph - N/A   Overcast
6:54 AM 60.8 °F 55.4 °F 82% 30.09 in 6.0 mi WSW 5.8 mph - 0.01 in Rain Light Rain
6:56 AM 60.1 °F 55.0 °F 83% 30.09 in 5.0 mi WSW 3.5 mph - 0.01 in Rain Light Rain
7:08 AM 59.0 °F 55.9 °F 90% 30.09 in 2.0 mi South 8.1 mph - 0.02 in Rain Light Rain
7:31 AM 59.0 °F 55.9 °F 90% 30.10 in 6.0 mi SE 5.8 mph - 0.02 in Rain Light Rain
7:51 AM 59.0 °F 55.4 °F 88% 30.10 in 6.0 mi SSE 5.8 mph - 0.03 in   Overcast
7:56 AM 59.0 °F 55.9 °F 90% 30.09 in 10.0 mi SE 6.9 mph - 0.03 in   Overcast
8:56 AM 60.1 °F 57.0 °F 90% 30.11 in 10.0 mi SSE 4.6 mph - N/A   Mostly Cloudy
9:24 AM 60.1 °F 57.0 °F 90% 30.11 in 10.0 mi SSE 6.9 mph - N/A   Scattered Clouds
9:56 AM 62.1 °F 57.9 °F 86% 30.12 in 10.0 mi South 6.9 mph - N/A   Scattered Clouds
10:56 AM 66.0 °F 57.9 °F 75% 30.13 in 10.0 mi SSW 6.9 mph - N/A   Scattered Clouds
11:56 AM 68.0 °F 55.9 °F 65% 30.14 in 10.0 mi NW 4.6 mph - N/A   Mostly Cloudy
12:03 PM 66.9 °F 55.9 °F 68% 30.14 in 10.0 mi NNW 4.6 mph - N/A   Mostly Cloudy
12:18 PM 68.0 °F 55.9 °F 65% 30.14 in 10.0 mi Calm Calm - N/A   Mostly Cloudy
12:56 PM 69.1 °F 53.1 °F 57% 30.14 in 10.0 mi NW 8.1 mph - N/A   Mostly Cloudy
1:56 PM 73.0 °F 48.9 °F 42% 30.14 in 10.0 mi NW 15.0 mph - N/A   Mostly Cloudy
2:56 PM 71.1 °F 48.0 °F 44% 30.14 in 10.0 mi West 11.5 mph - N/A   Partly Cloudy
3:56 PM 72.0 °F 46.9 °F 41% 30.14 in 10.0 mi WNW 15.0 mph - N/A   Partly Cloudy
4:56 PM 70.0 °F 48.9 °F 47% 30.16 in 10.0 mi WNW 12.7 mph - N/A   Partly Cloudy
5:56 PM 66.0 °F 50.0 °F 56% 30.17 in 10.0 mi West 13.8 mph 24.2 mph N/A   Clear
6:56 PM 63.0 °F 51.1 °F 65% 30.19 in 10.0 mi West 9.2 mph - N/A   Scattered Clouds
7:56 PM 62.1 °F 52.0 °F 70% 30.22 in 10.0 mi WNW 6.9 mph - N/A   Partly Cloudy
8:56 PM 61.0 °F 52.0 °F 72% 30.23 in 10.0 mi West 6.9 mph - N/A   Clear
9:56 PM 57.0 °F 51.1 °F 81% 30.25 in 10.0 mi SSE 3.5 mph - N/A   Mostly Cloudy
10:56 PM 54.0 °F 48.9 °F 83% 30.27 in 10.0 mi Calm Calm - N/A   Clear
11:56 PM 53.1 °F 48.9 °F 86% 30.26 in 10.0 mi ESE 6.9 mph - N/A   Clear